Iridium 82

operational
NORAD ID: 25467 Int'l Des: 1998-051 Owner: IRID Country: US Constellation: iridium
LEOCIRCULARPOLAR

About Iridium 82

Description loading...

Live Position

Loading 3D Globe...

Upcoming Passes

Altitude History

Altitude vs Time

uPlot chart will show altitude changes over time

Two-Line Element Set

1 25467U 98051A 25298.49373476 .00062268 00000-0 13600-2 0 9992
2 25467 86.3651 45.2829 0070581 159.2029 201.2124 15.41279159443955
Epoch: Oct 25, 2025 • Age: 12 hours

Current Status

Altitude 490.1 km
Velocity 7.59 km/s
Sub-Earth Point -1.13°S, 5.66°E
Launch Date Sep 8, 1998
Age 27.1 years
Type communications

Technical Details

Classification Payload
Mass 662.00 kg
Dry Mass 556.00 kg
Total Mass 662.00 kg
Length 3.50 m
Diameter 1.00 m
Span 5.00 m
Shape Box + 2 Pan
Manufacturer MOTO/LMMS
Bus Type LM700
Phase Status In Orbit
Owner/State IRID/US

Large Constellations

Loading constellations...